Weather History for KMOP - September, 2013

Change the Weather History Date:

Thursday, September 5, 2013

  Actual Average (KMBS) Record (KMBS)
Temperature  
Mean Temperature 57 °F 65 °F  
Max Temperature 68 °F 76 °F - ()
Min Temperature 46 °F 54 °F - ()
Degree Days  
Heating Degree Days 8    
Month to date heating degree days  
Since 1 July heating degree days  
Cooling Degree Days 0    
Month to date cooling degree days  
Year to date cooling degree days  
Growing Degree Days 7 (Base 50)    
Moisture  
Dew Point 45 °F    
Average Humidity 69    
Maximum Humidity 93    
Minimum Humidity 32    
Precipitation  
Precipitation 0.00 in 0.12 in - ()
Month to date precipitation 0.60  
Year to date precipitation 21.12  
Snow  
Snow 0.00 in - - ()
Month to date snowfall  
Since 1 July snowfall  
Since 1 September snowfall  
Snow Depth -    
Sea Level Pressure  
Sea Level Pressure 30.24 in    
Wind  
Wind Speed 2 mph (North)    
Max Wind Speed 8 mph    
Max Gust Speed -    
Visibility 10 miles    
Events      
T = Trace of Precipitation, MM = Missing Value Source: NWS Daily Summary

Daily Weather History Graph

Daily Weather History Graph

Search for Another Location

Airport or City:

Trip Planner

Search our weather history database for the weather conditions in past years. The results will help you decide how hot, cold, wet, or windy it might be!

Date:

Astronomy

Sep. 05, 2013 Rise Set
Actual Time 7:07 AM EDT 8:06 PM EDT
Civil Twilight 6:38 AM EDT 8:36 PM EDT
Nautical Twilight 6:03 AM EDT 9:10 PM EDT
Astronomical Twilight 5:26 AM EDT 9:47 PM EDT
Moon 7:20 AM EDT (9/5) 7:55 PM EDT (9/5)
Length of Visible Light 13h 57m
Length of Day
12h 59m
New Moon, 0% of the Moon is Illuminated
Sep 5
New Moon
Sep 12
First Quarter
Sep 19
Full
Sep 26
Last Quarter
Oct 4
New

Hourly Weather History & Observations

Time (EDT) Temp. Dew Point Humidity Pressure Visibility Wind Dir Wind Speed Gust Speed Precip Events Conditions
12:17 AM 56.1 °F 50.0 °F 80% 30.15 in 10.0 mi Calm Calm - N/A   Clear
12:36 AM 54.7 °F 50.2 °F 85% 30.15 in 10.0 mi Calm Calm - N/A   Clear
12:57 AM 52.9 °F 49.8 °F 89% 30.15 in 10.0 mi Calm Calm - N/A   Clear
1:17 AM 51.8 °F 49.3 °F 91% 30.16 in 10.0 mi Calm Calm - N/A   Clear
1:36 AM 52.2 °F 49.5 °F 91% 30.16 in 10.0 mi Calm Calm - N/A   Clear
1:57 AM 51.6 °F 48.7 °F 90% 30.15 in 10.0 mi Calm Calm - N/A   Clear
2:17 AM 49.8 °F 47.3 °F 91% 30.15 in 10.0 mi Calm Calm - N/A   Clear
2:36 AM 51.6 °F 48.7 °F 90% 30.15 in 10.0 mi WNW 3.5 mph - N/A   Clear
2:57 AM 51.4 °F 48.0 °F 88% 30.16 in 10.0 mi WNW 3.5 mph - N/A   Clear
3:17 AM 51.3 °F 47.5 °F 87% 30.16 in 10.0 mi West 3.5 mph - N/A   Clear
3:36 AM 51.4 °F 47.1 °F 85% 30.17 in 10.0 mi Calm Calm - N/A   Clear
3:57 AM 49.3 °F 46.4 °F 90% 30.18 in 10.0 mi North 3.5 mph - N/A   Clear
4:17 AM 48.6 °F 46.0 °F 91% 30.19 in 10.0 mi Calm Calm - N/A   Clear
4:36 AM 48.4 °F 46.0 °F 92% 30.19 in 10.0 mi Calm Calm - N/A   Clear
4:57 AM 48.2 °F 46.0 °F 92% 30.20 in 10.0 mi North 3.5 mph - N/A   Clear
5:17 AM 48.6 °F 45.3 °F 89% 30.21 in 10.0 mi Calm Calm - N/A   Clear
5:36 AM 48.4 °F 44.8 °F 87% 30.21 in 10.0 mi Calm Calm - N/A   Clear
5:57 AM 47.7 °F 44.6 °F 89% 30.21 in 10.0 mi Calm Calm - N/A   Clear
6:17 AM 46.4 °F 43.9 °F 91% 30.22 in 10.0 mi Calm Calm - N/A   Clear
6:36 AM 46.6 °F 44.4 °F 92% 30.23 in 10.0 mi Calm Calm - N/A   Clear
6:57 AM 46.8 °F 44.8 °F 93% 30.24 in 10.0 mi West 3.5 mph - N/A   Clear
7:17 AM 46.2 °F 44.1 °F 92% 30.24 in 10.0 mi Calm Calm - N/A   Clear
7:36 AM 46.8 °F 44.6 °F 92% 30.25 in 10.0 mi Calm Calm - N/A   Clear
7:57 AM 48.2 °F 45.1 °F 89% 30.26 in 10.0 mi Calm Calm - N/A   Clear
8:17 AM 49.6 °F 45.3 °F 85% 30.27 in 10.0 mi NW 3.5 mph - N/A   Clear
8:36 AM 50.4 °F 45.5 °F 83% 30.27 in 10.0 mi NNW 4.6 mph - N/A   Clear
8:57 AM 51.3 °F 46.0 °F 82% 30.28 in 10.0 mi North 4.6 mph - N/A   Clear
9:16 AM 52.5 °F 47.1 °F 82% 30.28 in 10.0 mi NNE 6.9 mph - N/A   Clear
9:37 AM 53.8 °F 47.3 °F 79% 30.28 in 10.0 mi North 5.8 mph - N/A   Clear
9:57 AM 55.0 °F 47.5 °F 76% 30.29 in 10.0 mi NNW 5.8 mph - N/A   Clear
10:16 AM 56.5 °F 47.7 °F 72% 30.29 in 10.0 mi North 5.8 mph - N/A   Clear
10:37 AM 57.9 °F 46.9 °F 67% 30.29 in 10.0 mi North 5.8 mph - N/A   Clear
10:57 AM 59.7 °F 47.7 °F 64% 30.29 in 10.0 mi North 4.6 mph - N/A   Clear
11:16 AM 59.7 °F 45.0 °F 58% 30.29 in 10.0 mi North 6.9 mph - N/A   Clear
11:37 AM 60.6 °F 44.1 °F 54% 30.29 in 10.0 mi NNE 8.1 mph - N/A   Clear
11:57 AM 61.3 °F 44.2 °F 53% 30.29 in 10.0 mi North 5.8 mph - N/A   Clear
12:16 PM 62.4 °F 44.6 °F 52% 30.28 in 10.0 mi NE 3.5 mph - N/A   Clear
12:37 PM 63.3 °F 44.6 °F 50% 30.28 in 10.0 mi Calm Calm - N/A   Clear
12:57 PM 63.5 °F 42.8 °F 47% 30.28 in 10.0 mi NNW 3.5 mph - N/A   Clear
1:16 PM 64.4 °F 42.8 °F 45% 30.28 in 10.0 mi North 6.9 mph - N/A   Clear
1:37 PM 64.8 °F 42.3 °F 44% 30.28 in 10.0 mi NNW 4.6 mph - N/A   Clear
1:57 PM 64.9 °F 42.4 °F 44% 30.28 in 10.0 mi North 6.9 mph - N/A   Clear
2:16 PM 66.0 °F 41.5 °F 41% 30.28 in 10.0 mi North 5.8 mph - N/A   Clear
2:37 PM 66.7 °F 40.8 °F 39% 30.27 in 10.0 mi NNW 3.5 mph - N/A   Clear
2:56 PM 66.6 °F 39.6 °F 37% 30.27 in 10.0 mi NNW 4.6 mph - N/A   Clear
3:16 PM 67.3 °F 38.8 °F 35% 30.26 in 10.0 mi North 5.8 mph - N/A   Clear
3:37 PM 67.6 °F 40.1 °F 37% 30.26 in 10.0 mi NW 3.5 mph - N/A   Clear
3:56 PM 67.6 °F 39.4 °F 36% 30.26 in 10.0 mi Calm Calm - N/A   Clear
4:16 PM 68.2 °F 39.4 °F 35% 30.26 in 10.0 mi NNE 3.5 mph - N/A   Clear
4:37 PM 68.7 °F 39.4 °F 34% 30.25 in 10.0 mi NNE 5.8 mph - N/A   Clear
4:56 PM 68.0 °F 37.8 °F 33% 30.25 in 10.0 mi NNE 3.5 mph - N/A   Clear
5:16 PM 68.5 °F 37.8 °F 32% 30.25 in 10.0 mi NNE 5.8 mph - N/A   Clear
5:37 PM 68.9 °F 39.0 °F 34% 30.24 in 10.0 mi North 5.8 mph - N/A   Clear
5:56 PM 68.2 °F 39.0 °F 34% 30.24 in 10.0 mi NNW 3.5 mph - N/A   Clear
6:17 PM 68.0 °F 38.5 °F 34% 30.24 in 10.0 mi NNE 3.5 mph - N/A   Clear
6:37 PM 68.0 °F 39.4 °F 35% 30.24 in 10.0 mi Calm Calm - N/A   Clear
6:56 PM 67.6 °F 39.4 °F 36% 30.24 in 10.0 mi North 3.5 mph - N/A   Clear
7:17 PM 65.5 °F 41.9 °F 42% 30.24 in 10.0 mi Calm Calm - N/A   Clear
7:37 PM 62.1 °F 45.1 °F 54% 30.24 in 10.0 mi Calm Calm - N/A   Clear
7:56 PM 61.0 °F 48.2 °F 63% 30.24 in 10.0 mi Calm Calm - N/A   Clear
8:17 PM 57.4 °F 45.9 °F 65% 30.24 in 10.0 mi Calm Calm - N/A   Clear
8:37 PM 55.4 °F 46.8 °F 73% 30.25 in 10.0 mi Calm Calm - N/A   Clear
8:56 PM 53.4 °F 47.7 °F 81% 30.25 in 10.0 mi Calm Calm - N/A   Clear
9:17 PM 52.7 °F 48.2 °F 85% 30.25 in 10.0 mi Calm Calm - N/A   Clear
9:36 PM 52.2 °F 48.2 °F 86% 30.26 in 10.0 mi Calm Calm - N/A   Clear
9:56 PM 52.5 °F 48.4 °F 86% 30.26 in 10.0 mi Calm Calm - N/A   Clear
10:17 PM 50.9 °F 47.5 °F 88% 30.26 in 10.0 mi Calm Calm - N/A   Clear
10:36 PM 51.3 °F 48.4 °F 90% 30.25 in 10.0 mi Calm Calm - N/A   Clear
10:56 PM 50.7 °F 48.0 °F 90% 30.26 in 10.0 mi Calm Calm - N/A   Clear
11:17 PM 48.7 °F 46.8 °F 93% 30.26 in 10.0 mi Calm Calm - N/A   Clear
11:36 PM 48.2 °F 46.0 °F 92% 30.26 in 10.0 mi Calm Calm - N/A   Clear
11:56 PM 47.5 °F 45.7 °F 93% 30.26 in 10.0 mi Calm Calm - N/A   Clear